Simultaneous Nadir Overpasses (SNOs) Predictions

Prediction of SNOs between GOES-15 and LANDSAT-8 Satellite Orbit:

Table of predicted SNOs for the next 14.0 days since TLE Epoch: 10/10/2025
Index Date Time (GOES-15) GOES-15 Lat,Lon LANDSAT-8 Lat,Lon Distance(km) Time Diff (sec)
1 10/12/2025 17:53:38 -0.64, 61.46 -0.02, 64.40 334.03 80
2 10/13/2025 06:14:54 0.64, 61.35 1.09, 59.24 240.14 80
3 10/15/2025 06:05:22 0.65, 61.37 0.50, 62.20 94.34 80
4 10/17/2025 05:53:11 0.65, 61.38 -0.16, 65.15 429.00 80
5 10/17/2025 18:14:35 -0.65, 61.50 -0.95, 59.96 173.75 80
6 10/19/2025 17:59:43 -0.65, 61.52 -0.33, 62.92 160.84 80
7 10/20/2025 06:20:57 0.65, 61.42 1.45, 57.77 414.78 80
8 10/21/2025 17:47:30 -0.65, 61.54 0.25, 65.90 495.13 80
9 10/22/2025 06:08:46 0.65, 61.44 0.81, 60.73 80.44 80
10 10/24/2025 05:59:14 0.65, 61.47 0.15, 63.69 253.40 80
11 10/24/2025 18:20:36 -0.64, 61.57 -1.30, 58.51 348.51 80
